User: anonymous   Login
Location: Camp at the Woods
(43.2055°N, 93.0905°W)
Time: 04:18:53
(UTC+00:00)
Language:

Cosmos 1302 Rocket - Orbit

View from above orbital plane
View from above orbital plane
View from above satellite
View from above satellite

Ground track
Ground track

The orbit data is extracted from the following two-line orbital elements,

1 12792U 81084B   24108.48858666  .00000767  00000-0  26108-3 0  9998
2 12792  74.0272 118.6162 0013131 164.0716 196.0854 14.38206527233474
Epoch (UTC): 17 April 2024 11:43:33
Eccentricity: 0.0013131
inclination: 74.0272°
perigee height: 755 km
apogee height: 774 km
right ascension of ascending node: 118.6162°
argument of perigee: 164.0716°
revolutions per day: 14.38206527
mean anomaly at epoch: 196.0854°
orbit number at epoch: 23347

The dashed part of the orbit path shows where the satellite is in the earth's shadow,  

DLR